Date String (YYYY-MM-DD hh:mm:ss) UTC,Instrument flags,absolute air pressure of the measurement (hPa),sample flow rate (lpm),inlet stack bypass flow (lpm),air temperature of the measurement (°C),ambient temperature measured by the external sensor (°C),aerosol sample conditioner tube jacket temperature (°C),OPC LED temperature (°C),internal box temperature (°C),relative humidity of the measurement (%),span deviation,mass concentration of particles derived from Lorenz-Mie calculation of OPC scattering (μg/m³),mass concentration of particles derived from Lorenz-Mie calculation of OPC scattering (μg/m³),mass concentration of particles derived from Lorenz-Mie calculation of OPC scattering (μg/m³)
DateTimeUTC,F1_M11,P_M11,Q1_M11,Q2_M11,T1_M11,T2_M11,T3_M11,T4_M11,T5_M11,U1_M11,ZSPAN_M11,X0_M11,X2_M11,X1_M11
2023-07-11 07:00:00,SystemResetWarning,0830.4,4.99,000.00,029.2,027.4,000.0,037.7,030.8,17.7,0000.0,0008.38,0003.30,0002.84
2023-07-11 07:01:00,SystemResetWarning,0830.4,4.99,000.00,029.2,027.6,000.0,037.7,030.8,17.8,0000.0,0007.45,0003.27,0002.83
2023-07-11 07:02:00,SystemResetWarning,0830.4,5.01,000.00,029.3,027.8,000.0,037.7,030.9,18.1,0000.0,0007.53,0003.28,0002.82
2023-07-11 07:03:00,SystemResetWarning,0830.6,5.00,000.00,029.3,027.9,000.0,037.7,030.9,19.8,0000.0,0007.48,0003.29,0002.78
2023-07-11 07:04:00,SystemResetWarning,0830.5,5.00,000.00,029.3,028.1,000.0,037.8,031.0,20.5,0000.0,0006.29,0003.29,0002.76
2023-07-11 07:05:00,SystemResetWarning,0830.6,5.00,000.00,029.4,028.2,000.0,037.8,031.1,19.5,0000.0,0005.93,0003.28,0002.74
2023-07-11 07:06:00,SystemResetWarning,0830.4,5.00,000.00,029.4,028.3,000.0,037.8,031.1,19.3,0000.0,0005.64,0003.27,0002.73
2023-07-11 07:07:00,SystemResetWarning,0830.5,4.99,000.00,029.4,028.4,000.0,037.8,031.1,19.1,0000.0,0005.14,0003.23,0002.70
2023-07-11 07:08:00,SystemResetWarning,0830.4,4.98,000.00,029.5,028.1,000.0,037.8,031.1,19.1,0000.0,0005.02,0003.21,0002.69
2023-07-11 07:09:00,SystemResetWarning,0830.4,5.00,000.00,029.5,026.3,000.0,037.7,030.9,19.1,0000.0,0005.93,0003.21,0002.67
2023-07-11 07:10:00,SystemResetWarning,0830.4,5.01,000.00,029.4,025.5,000.0,037.6,030.8,18.6,0000.0,0006.48,0003.20,0002.68
2023-07-11 07:11:00,SystemResetWarning,0830.5,5.01,000.00,029.3,025.6,000.0,037.6,030.6,18.9,0000.0,0006.81,0003.25,0002.71
2023-07-11 07:12:00,SystemResetWarning,0830.5,5.00,000.00,029.2,026.0,000.0,037.7,030.6,19.2,0000.0,0007.14,0003.26,0002.72
2023-07-11 07:13:00,SystemResetWarning,0830.5,5.00,000.00,029.2,026.3,000.0,037.7,030.6,19.2,0000.0,0007.15,0003.24,0002.72
2023-07-11 07:14:00,SystemResetWarning,0830.5,5.00,000.00,029.2,026.7,000.0,037.7,030.7,19.4,0000.0,0007.02,0003.22,0002.72
2023-07-11 07:15:00,SystemResetWarning,0830.5,5.00,000.00,029.2,027.0,000.0,037.7,030.8,20.3,0000.0,0006.90,0003.22,0002.73
2023-07-11 07:16:00,SystemResetWarning,0830.5,4.99,000.00,029.3,027.3,000.0,037.7,030.8,19.9,0000.0,0006.92,0003.23,0002.73
2023-07-11 07:17:00,SystemResetWarning,0830.6,5.00,000.00,029.3,027.6,000.0,037.7,030.9,19.7,0000.0,0006.93,0003.23,0002.72
2023-07-11 07:18:00,SystemResetWarning,0830.6,5.01,000.00,029.3,027.8,000.0,037.8,030.9,19.4,0000.0,0006.84,0003.23,0002.73
2023-07-11 07:19:00,SystemResetWarning,0830.6,4.99,000.00,029.3,027.9,000.0,037.8,031.0,19.1,0000.0,0006.79,0003.25,0002.73
2023-07-11 07:20:00,SystemResetWarning,0830.6,5.00,000.00,029.4,028.1,000.0,037.8,031.0,19.3,0000.0,0007.06,0003.24,0002.73
2023-07-11 07:21:00,SystemResetWarning,0830.7,5.00,000.00,029.4,028.2,000.0,037.8,031.1,19.1,0000.0,0007.01,0003.23,0002.73
2023-07-11 07:22:00,SystemResetWarning,0830.7,4.99,000.00,029.5,028.3,000.0,037.8,031.1,19.1,0000.0,0007.04,0003.22,0002.71
2023-07-11 07:23:00,SystemResetWarning,0830.7,5.00,000.00,029.5,028.4,000.0,037.9,031.2,19.3,0000.0,0006.79,0003.24,0002.71
2023-07-11 07:24:00,SystemResetWarning,0830.7,4.99,000.00,029.5,027.2,000.0,037.8,031.1,19.4,0000.0,0006.91,0003.26,0002.72
2023-07-11 07:25:00,SystemResetWarning,0830.6,5.00,000.00,029.4,025.6,000.0,037.7,030.9,19.5,0000.0,0007.63,0003.28,0002.74
2023-07-11 07:26:00,SystemResetWarning,0830.6,5.02,000.00,029.4,025.5,000.0,037.6,030.7,19.5,0000.0,0007.91,0003.26,0002.73
2023-07-11 07:27:00,SystemResetWarning,0830.6,5.00,000.00,029.3,025.8,000.0,037.7,030.5,19.6,0000.0,0007.91,0003.27,0002.74
2023-07-11 07:28:00,SystemResetWarning,0830.6,4.99,000.00,029.2,026.2,000.0,037.7,030.6,19.5,0000.0,0007.92,0003.28,0002.76
2023-07-11 07:29:00,SystemResetWarning,0830.6,5.00,000.00,029.2,026.6,000.0,037.7,030.7,19.6,0000.0,0007.99,0003.30,0002.77
2023-07-11 07:30:00,SystemResetWarning,0830.6,5.01,000.00,029.2,026.9,000.0,037.7,030.7,19.4,0000.0,0008.10,0003.29,0002.79
2023-07-11 07:31:00,SystemResetWarning,0830.6,5.00,000.00,029.2,027.2,000.0,037.7,030.8,19.3,0000.0,0007.92,0003.30,0002.80
2023-07-11 07:32:00,SystemResetWarning,0830.6,4.98,000.00,029.3,027.5,000.0,037.7,030.9,19.3,0000.0,0007.73,0003.32,0002.79
2023-07-11 07:33:00,SystemResetWarning,0830.6,5.00,000.00,029.3,027.7,000.0,037.8,030.9,19.2,0000.0,0007.88,0003.31,0002.80
2023-07-11 07:34:00,SystemResetWarning,0830.6,5.02,000.00,029.3,027.8,000.0,037.8,031.0,19.3,0000.0,0007.79,0003.29,0002.82
2023-07-11 07:35:00,SystemResetWarning,0830.6,4.99,000.00,029.4,028.0,000.0,037.8,031.0,19.7,0000.0,0007.71,0003.28,0002.83
2023-07-11 07:36:00,SystemResetWarning,0830.6,4.99,000.00,029.4,028.1,000.0,037.8,031.1,19.6,0000.0,0007.19,0003.29,0002.85
2023-07-11 07:37:00,SystemResetWarning,0830.6,4.99,000.00,029.4,028.2,000.0,037.8,031.1,19.4,0000.0,0006.99,0003.31,0002.88
2023-07-11 07:38:00,SystemResetWarning,0830.5,5.01,000.00,029.5,028.3,000.0,037.9,031.1,19.2,0000.0,0007.62,0003.33,0002.90
2023-07-11 07:39:00,SystemResetWarning,0830.6,5.01,000.00,029.5,028.4,000.0,037.9,031.2,19.1,0000.0,0007.65,0003.35,0002.92
2023-07-11 07:40:00,SystemResetWarning,0830.6,4.99,000.00,029.5,028.2,000.0,037.9,031.2,19.2,0000.0,0007.71,0003.35,0002.93
2023-07-11 07:41:00,SystemResetWarning,0830.6,4.99,000.00,029.5,026.3,000.0,037.8,030.9,19.8,0000.0,0008.05,0003.35,0002.94
2023-07-11 07:42:00,SystemResetWarning,0830.6,5.01,000.00,029.4,025.6,000.0,037.7,030.8,20.4,0000.0,0007.62,0003.39,0002.97
2023-07-11 07:43:00,SystemResetWarning,0830.6,5.01,000.00,029.3,025.7,000.0,037.7,030.6,21.2,0000.0,0007.64,0003.44,0003.03
2023-07-11 07:44:00,SystemResetWarning,0830.6,5.00,000.00,029.3,026.0,000.0,037.7,030.6,22.3,0000.0,0007.55,0003.46,0003.06
2023-07-11 07:45:00,SystemResetWarning,0830.6,5.00,000.00,029.3,026.4,000.0,037.7,030.7,22.8,0000.0,0007.53,0003.49,0003.09
2023-07-11 07:46:00,SystemResetWarning,0830.7,5.01,000.00,029.3,026.8,000.0,037.8,030.7,22.9,0000.0,0007.96,0003.51,0003.10
2023-07-11 07:47:00,SystemResetWarning,0830.7,4.99,000.00,029.3,027.1,000.0,037.8,030.8,23.5,0000.0,0008.11,0003.55,0003.12
2023-07-11 07:48:00,SystemResetWarning,0830.7,4.98,000.00,029.3,027.4,000.0,037.8,030.9,22.8,0000.0,0008.22,0003.59,0003.14
2023-07-11 07:49:00,SystemResetWarning,0830.7,5.02,000.00,029.3,027.6,000.0,037.8,030.9,22.5,0000.0,0008.08,0003.61,0003.17
2023-07-11 07:50:00,SystemResetWarning,0830.6,4.99,000.00,029.3,027.8,000.0,037.8,031.0,22.7,0000.0,0008.23,0003.64,0003.21
2023-07-11 07:51:00,SystemResetWarning,0830.6,5.00,000.00,029.4,027.9,000.0,037.8,031.0,22.9,0000.0,0008.98,0003.75,0003.30
2023-07-11 07:52:00,SystemResetWarning,0830.6,5.02,000.00,029.4,028.1,000.0,037.8,031.1,22.8,0000.0,0009.89,0003.87,0003.39
2023-07-11 07:53:00,SystemResetWarning,0830.5,4.99,000.00,029.4,028.2,000.0,037.9,031.1,22.8,0000.0,0010.19,0003.98,0003.49
2023-07-11 07:54:00,SystemResetWarning,0830.5,5.00,000.00,029.5,028.3,000.0,037.9,031.1,22.4,0000.0,0010.84,0004.12,0003.61
2023-07-11 07:55:00,SystemResetWarning,0830.5,4.99,000.00,029.5,028.4,000.0,037.9,031.2,21.8,0000.0,0011.13,0004.26,0003.73
2023-07-11 07:56:00,SystemResetWarning,0830.6,4.99,000.00,029.5,028.1,000.0,037.9,031.2,21.4,0000.0,0011.29,0004.39,0003.85
2023-07-11 07:57:00,SystemResetWarning,0830.6,5.00,000.00,029.5,026.3,000.0,037.8,031.0,21.4,0000.0,0011.45,0004.56,0003.97
2023-07-11 07:58:00,SystemResetWarning,0830.4,5.01,000.00,029.4,025.4,000.0,037.7,030.8,21.5,0000.0,0011.72,0004.73,0004.10
2023-07-11 07:59:00,SystemResetWarning,0830.5,5.02,000.00,029.3,025.5,000.0,037.7,030.5,21.9,0000.0,0011.64,0004.85,0004.20
